This is the latest recevied weather packets stored in our database for station/object KM4KMS. If no packets are shown the sender has not sent any weather packets the latest 10 day(s).
| Time | Temp. | Humidity | Pressure | Rain* | Wind** | Luminosity | Snow |
|---|---|---|---|---|---|---|---|
| 1777905218 | 14.44° C | 81% | 1009.8 hPa | 0 mm | - | 684 W/m² | - |
| 1777904916 | 13.89° C | 82% | 1009.7 hPa | 0 mm | - | 597 W/m² | - |
| 1777904613 | 13.89° C | 82% | 1009.7 hPa | 0 mm | - | 178 W/m² | - |
| 1777904310 | 13.33° C | 82% | 1010 hPa | 0 mm | - | 159 W/m² | - |
| 1777904007 | 13.33° C | 83% | 1009.8 hPa | 0 mm | - | 157 W/m² | - |
| 1777903704 | 13.33° C | 83% | 1009.9 hPa | 0 mm | - | 170 W/m² | - |
| 1777903399 | 13.33° C | 83% | 1010.2 hPa | 0 mm | - | 130 W/m² | - |
| 1777903096 | 12.78° C | 83% | 1009.9 hPa | 0 mm | - | 164 W/m² | - |
| 1777902793 | 12.78° C | 83% | 1010.1 hPa | 0 mm | - | 181 W/m² | - |
| 1777902491 | 12.78° C | 84% | 1009.9 hPa | 0 mm | - | 182 W/m² | - |
| 1777902187 | 12.78° C | 83% | 1010.1 hPa | 0 mm | - | 154 W/m² | - |
| 1777901885 | 13.33° C | 85% | 1009.9 hPa | 0 mm | - | 185 W/m² | - |
| 1777901583 | 13.89° C | 85% | 1010.1 hPa | 0 mm | - | 196 W/m² | - |
| 1777901279 | 13.33° C | 91% | 1010.2 hPa | 0 mm | - | 176 W/m² | - |
| 1777900977 | 12.78° C | 93% | 1010.2 hPa | 0 mm | - | 151 W/m² | - |
| 1777900674 | 12.78° C | 93% | 1010.5 hPa | 0 mm | - | 104 W/m² | - |
| 1777900371 | 12.78° C | 92% | 1010.1 hPa | 0 mm | - | 79 W/m² | - |
| 1777900068 | 12.78° C | 87% | 1010 hPa | 0 mm | - | 45 W/m² | - |
| 1777899764 | 12.78° C | 90% | 1011.4 hPa | 0 mm | - | 14 W/m² | - |
| 1777899461 | 12.78° C | 88% | 1011.5 hPa | 0 mm | - | 8 W/m² | - |
| 1777899159 | 12.78° C | 86% | 1011.2 hPa | 0 mm | - | 7 W/m² | - |
| 1777898857 | 12.78° C | 86% | 1010.8 hPa | 0 mm | - | 8 W/m² | - |
| 1777898554 | 12.78° C | 85% | 1010.8 hPa | 0 mm | - | 13 W/m² | - |
| 1777898251 | 12.22° C | 85% | 1011.1 hPa | 0 mm | - | 30 W/m² | - |
| 1777897948 | 11.67° C | 87% | 1011.4 hPa | 0 mm | - | 24 W/m² | - |
* Rain latest hour (hover to see other rain measurements)
** Current wind speed in m/s (hover to see current wind gust speed)